Wetbulb
67.91 68.54 67.41 67.82 67.75 67.77 67.88 67.63 67.73 68.17 67.83 67.29 67.43 66.59 66.95 66.32 65.25 65.03 64.46 62.87 62.03 60.94
69.21 68.38 67.46 67.23 66.96 66.21 66.24 66.34 66.89 67.55 65.63 65.44 65.01 63.95 65.62 65.00 64.84 63.74 62.42 61.22 60.42 58.84
67.16 66.62 65.80 65.49 63.62 63.87 63.78 63.95 66.65 66.30 64.89 65.49 66.10 64.95 64.92 63.56 63.22 60.93 57.83 55.65 55.70 54.06
64.88 65.31 65.08 64.44 64.12 63.60 65.70 66.39 65.92 65.40 65.65 65.20 64.17 63.87 62.41 61.12 58.08 55.52 54.93 54.39 53.60 53.69
63.43 63.79 63.70 64.29 65.20 65.97 65.49 65.72 65.41 63.38 62.48 62.83 59.17 57.54 57.36 56.89 56.23 54.76 54.24 52.97 52.77 52.82
62.63 63.29 64.11 65.53 64.65 63.29 63.03 63.40 63.72 63.28 62.75 62.21 59.47 56.85 56.40 56.46 55.97 55.20 53.91 53.21 52.86 52.85
63.71 64.54 64.45 64.34 63.68 62.11 61.69 61.74 60.75 58.87 57.85 56.93 56.27 56.47 55.49 54.78 54.02 54.31 54.47 54.55 53.83 53.46
61.94 60.63 60.19 59.25 59.66 59.89 58.88 58.82 57.85 56.20 54.15 53.40 52.95 53.95 52.94 51.89 51.31 50.98 50.44 50.65 51.99 52.95
59.98 59.40 58.53 58.26 58.42 58.00 56.86 56.47 56.09 53.91 52.40 51.06 51.43 49.55 51.48 50.61 49.26 49.37 49.43 49.41 50.54 51.44
57.58 57.69 58.46 58.89 58.34 58.18 57.88 57.12 55.14 50.75 49.09 48.12 48.39 47.77 48.94 50.57 48.90 48.24 49.33 48.54 49.00 49.42
56.02 57.29 57.73 58.22 58.16 57.49 56.07 53.87 52.32 49.21 48.62 48.37 48.26 46.80 46.89 48.60 45.67 43.75 44.54 46.52 47.72 48.29
56.45 56.68 56.76 55.40 54.48 53.56 52.56 51.91 52.64 50.17 49.38 47.93 45.73 45.58 45.66 45.32 42.15 41.67 41.89 43.29 46.05 47.12
56.54 56.60 55.06 53.21 51.89 51.32 51.29 51.01 52.73 50.67 49.07 48.50 44.79 44.73 44.32 44.21 41.97 40.52 41.08 41.61 42.40 45.89
55.78 54.94 54.04 52.31 51.08 50.67 50.17 49.97 49.89 49.80 48.01 46.12 44.39 43.89 44.34 43.91 41.32 40.80 40.46 40.84 41.39 42.47
MSLP
1008.73 1009.26 1010.14 1010.69 1010.70 1010.91 1011.98 1012.02 1012.53 1012.89 1013.49 1014.22 1013.68 1013.35 1013.65 1014.11 1014.58 1015.40 1015.14 1015.52 1016.00 1016.16
1008.45 1009.46 1010.23 1010.25 1010.20 1011.03 1011.81 1012.23 1012.68 1012.71 1013.60 1013.29 1014.21 1013.83 1013.52 1013.92 1014.33 1014.84 1015.69 1015.84 1015.90 1016.34
1010.14 1010.73 1011.71 1012.18 1010.99 1011.37 1011.67 1011.75 1012.28 1012.92 1013.26 1013.41 1013.69 1013.21 1013.90 1014.13 1014.80 1015.59 1015.56 1015.55 1016.01 1016.42
1010.51 1011.82 1012.17 1011.60 1012.90 1011.88 1011.38 1011.86 1012.53 1012.95 1013.57 1013.97 1013.95 1013.64 1013.72 1015.21 1015.73 1015.57 1015.73 1015.89 1016.36 1016.65
1006.99 1010.28 1010.85 1012.70 1012.45 1012.34 1011.87 1012.45 1013.03 1013.50 1013.92 1014.22 1014.44 1014.46 1015.03 1015.04 1015.25 1015.53 1015.97 1016.16 1016.40 1016.39
1010.42 1010.54 1011.67 1012.54 1013.28 1012.80 1012.82 1013.11 1014.12 1014.40 1014.27 1014.53 1014.46 1014.72 1014.71 1015.24 1015.66 1015.80 1016.07 1016.37 1016.45 1016.52
1010.79 1011.07 1011.00 1010.91 1011.91 1013.40 1013.42 1013.74 1014.46 1014.58 1014.42 1014.95 1015.32 1015.44 1015.62 1015.93 1016.21 1016.34 1016.53 1016.62 1016.63 1016.64
1012.30 1012.36 1012.56 1012.54 1013.11 1014.21 1014.16 1014.38 1015.15 1015.24 1015.84 1015.99 1015.84 1016.01 1016.34 1016.64 1016.94 1016.87 1016.81 1016.92 1016.87 1016.78
1013.16 1013.42 1013.83 1014.13 1014.12 1015.06 1015.09 1015.35 1015.52 1015.90 1016.23 1016.53 1016.84 1016.73 1016.67 1016.89 1017.13 1017.22 1017.47 1017.48 1017.23 1016.87
1014.38 1014.47 1014.73 1014.86 1014.83 1015.57 1015.93 1016.19 1016.54 1016.91 1017.14 1017.55 1017.72 1017.61 1017.53 1017.69 1017.82 1017.75 1017.83 1017.70 1017.47 1017.15
1014.74 1014.94 1015.37 1015.54 1015.89 1016.20 1016.51 1016.95 1017.30 1017.62 1017.79 1017.88 1018.20 1018.01 1018.00 1017.94 1018.17 1018.42 1018.34 1018.02 1017.88 1017.63
1015.30 1015.81 1016.17 1016.31 1016.60 1016.73 1016.97 1017.43 1017.75 1018.02 1018.12 1018.18 1018.56 1018.39 1018.37 1018.64 1018.87 1018.93 1018.84 1018.49 1018.12 1017.78
1016.07 1016.45 1016.75 1017.12 1017.35 1017.45 1017.51 1017.67 1017.91 1018.34 1018.61 1018.78 1019.11 1019.05 1019.13 1019.12 1019.13 1019.34 1019.23 1018.76 1018.48 1018.12
1016.43 1016.85 1017.10 1017.33 1017.55 1017.80 1018.14 1018.33 1018.55 1018.80 1019.23 1019.34 1019.42 1019.41 1019.38 1019.44 1019.62 1019.76 1019.72 1019.54 1019.03 1018.44
Wind_Speed
7 6 7 11 10 8 7 6 7 5 6 6 2 5 4 3 4 5 4 5 2 3
9 11 9 10 7 6 4 1 2 4 2 2 3 3 5 4 5 3 2 3 4 4
10 9 7 5 6 5 2 2 3 3 4 1 3 7 5 5 3 5 3 4 6 3
16 15 12 5 6 1 2 6 8 8 8 7 7 4 7 4 4 6 6 5 6 4
15 7 8 5 4 7 12 11 10 12 10 7 8 8 7 8 6 7 6 6 5 4
9 5 5 9 9 12 12 11 7 5 5 4 5 3 6 6 5 6 6 4 4 2
9 10 13 13 12 9 8 10 5 6 6 7 7 8 8 7 7 6 5 4 4 2
11 11 11 13 12 8 5 5 4 9 8 8 9 6 7 7 6 6 6 6 5 3
11 12 11 10 7 4 5 6 10 10 10 9 6 9 10 7 6 6 5 5 6 6
7 8 6 5 9 7 7 9 10 8 8 7 6 10 11 9 6 6 6 5 4 4
7 7 6 6 6 6 6 7 7 7 6 7 5 8 10 10 7 6 6 6 5 4
6 7 6 7 6 5 7 6 5 5 6 8 7 11 13 8 7 6 7 6 6 4
6 6 7 7 6 3 4 5 6 8 7 8 7 9 10 7 4 7 5 6 7 9
7 7 6 6 4 5 6 7 7 7 6 6 6 7 10 9 5 3 3 3 4 5
Wind_Direction
168 136 119 125 138 139 190 174 192 188 218 285 36 84 86 171 144 188 219 220 205 104
140 129 146 150 116 111 123 135 223 139 199 242 250 123 124 134 140 171 201 144 94 104
51 63 50 37 60 113 261 208 170 126 114 243 93 125 124 80 118 149 127 103 103 87
64 49 15 1 299 93 88 74 103 104 87 86 111 71 90 96 130 94 95 93 94 81
129 158 121 283 21 82 78 78 79 91 90 105 102 119 137 144 133 119 106 109 106 93
126 109 109 78 66 79 92 89 72 88 106 95 85 128 111 101 99 92 89 81 64 50
84 97 119 121 115 106 97 98 97 109 87 71 81 69 69 70 66 61 56 49 16 311
80 86 90 90 85 72 84 114 104 95 80 71 69 73 76 71 64 52 33 12 347 309
80 84 87 94 91 70 77 76 85 75 74 63 60 61 75 75 55 37 21 354 337 331
93 90 84 78 71 55 55 80 84 78 83 77 61 49 54 55 51 45 27 357 347 347
68 74 76 82 84 76 88 102 109 106 111 107 69 62 63 65 55 37 15 13 7 354
84 81 76 71 77 88 93 92 110 120 97 76 50 52 51 58 42 30 10 357 9 15
102 88 78 88 84 74 90 92 89 75 67 78 70 56 61 58 46 29 8 0 8 355
86 93 104 94 82 86 74 74 75 84 74 78 75 42 43 46 60 49 21 12 350 353